Time,TemperatureF,DewpointF,PressureIn,WindDirection,WindDirectionDegrees,WindSpeedMPH,WindSpeedGustMPH,Humidity,HourlyPrecipIn,Conditions,Clouds,dailyrainin,SoftwareType,DateUTC
2013-04-16 00:00:00,57.1,50.3,30.30,ESE,102,2.0,8.0,78,0.00,,,0.00,Wunderground v.1.15,2013-04-16 04:00:00,
2013-04-16 00:05:00,57.1,50.3,30.30,East,94,3.0,8.0,78,0.00,,,0.00,Wunderground v.1.15,2013-04-16 04:05:00,
2013-04-16 00:15:00,57.1,50.6,30.30,ESE,117,3.0,8.0,79,0.00,,,0.00,Wunderground v.1.15,2013-04-16 04:15:00,
2013-04-16 00:20:00,57.0,50.5,30.30,East,79,2.0,8.0,79,0.00,,,0.00,Wunderground v.1.15,2013-04-16 04:20:00,
2013-04-16 00:25:00,57.0,50.5,30.30,East,91,3.0,8.0,79,0.00,,,0.00,Wunderground v.1.15,2013-04-16 04:25:00,
2013-04-16 00:30:00,56.9,50.5,30.30,East,94,2.0,2.0,79,0.00,,,0.00,Wunderground v.1.15,2013-04-16 04:30:00,
2013-04-16 00:35:00,56.9,50.5,30.30,SSE,160,2.0,8.0,79,0.00,,,0.00,Wunderground v.1.15,2013-04-16 04:35:00,
2013-04-16 00:40:00,56.9,50.5,30.30,ESE,120,2.0,2.0,79,0.00,,,0.00,Wunderground v.1.15,2013-04-16 04:40:00,
2013-04-16 00:45:00,56.9,50.5,30.30,ESE,120,1.0,8.0,79,0.00,,,0.00,Wunderground v.1.15,2013-04-16 04:45:00,
2013-04-16 00:50:00,56.8,50.7,30.30,East,82,1.0,8.0,80,0.00,,,0.00,Wunderground v.1.15,2013-04-16 04:50:00,
2013-04-16 00:55:00,56.8,50.7,30.30,East,96,2.0,8.0,80,0.00,,,0.00,Wunderground v.1.15,2013-04-16 04:55:00,
2013-04-16 01:05:00,56.6,50.5,30.30,East,95,3.0,8.0,80,0.00,,,0.00,Wunderground v.1.15,2013-04-16 05:05:00,
2013-04-16 01:10:00,56.6,50.5,30.30,ESE,104,4.0,4.0,80,0.00,,,0.00,Wunderground v.1.15,2013-04-16 05:10:00,
2013-04-16 01:15:00,56.6,50.8,30.30,East,82,3.0,8.0,81,0.00,,,0.00,Wunderground v.1.15,2013-04-16 05:15:00,
2013-04-16 01:20:00,56.5,50.7,30.30,East,82,2.0,2.0,81,0.00,,,0.00,Wunderground v.1.15,2013-04-16 05:20:00,
2013-04-16 01:25:00,56.5,50.7,30.30,East,83,2.0,8.0,81,0.00,,,0.00,Wunderground v.1.15,2013-04-16 05:25:00,
2013-04-16 01:35:00,56.5,50.7,30.30,ESE,102,2.0,8.0,81,0.00,,,0.00,Wunderground v.1.15,2013-04-16 05:35:00,
2013-04-16 01:40:00,56.4,50.6,30.30,East,98,1.0,8.0,81,0.00,,,0.00,Wunderground v.1.15,2013-04-16 05:40:00,
2013-04-16 01:45:00,56.4,51.0,30.29,ESE,103,1.0,8.0,82,0.00,,,0.00,Wunderground v.1.15,2013-04-16 05:45:00,
2013-04-16 01:50:00,56.4,51.0,30.29,South,170,1.0,1.0,82,0.00,,,0.00,Wunderground v.1.15,2013-04-16 05:50:00,
2013-04-16 01:55:00,56.3,50.9,30.29,East,92,1.0,8.0,82,0.00,,,0.00,Wunderground v.1.15,2013-04-16 05:55:00,
2013-04-16 02:05:00,56.2,50.8,30.29,East,101,1.0,8.0,82,0.00,,,0.00,Wunderground v.1.15,2013-04-16 06:05:00,
2013-04-16 02:10:00,56.2,51.1,30.29,East,93,1.0,8.0,83,0.00,,,0.00,Wunderground v.1.15,2013-04-16 06:10:00,
2013-04-16 02:15:00,56.1,51.0,30.29,East,92,1.0,8.0,83,0.00,,,0.00,Wunderground v.1.15,2013-04-16 06:15:00,
2013-04-16 02:20:00,56.1,51.0,30.29,East,94,2.0,2.0,83,0.00,,,0.00,Wunderground v.1.15,2013-04-16 06:20:00,
2013-04-16 02:30:00,56.0,50.9,30.29,East,98,1.0,8.0,83,0.00,,,0.00,Wunderground v.1.15,2013-04-16 06:30:00,
2013-04-16 02:35:00,56.0,51.2,30.29,East,98,1.0,8.0,84,0.00,,,0.00,Wunderground v.1.15,2013-04-16 06:35:00,
2013-04-16 02:40:00,55.9,51.1,30.29,East,98,1.0,8.0,84,0.00,,,0.00,Wunderground v.1.15,2013-04-16 06:40:00,
2013-04-16 02:45:00,55.9,51.1,30.28,East,98,1.0,8.0,84,0.00,,,0.00,Wunderground v.1.15,2013-04-16 06:45:00,
2013-04-16 02:55:00,55.8,51.0,30.28,East,85,2.0,8.0,84,0.00,,,0.00,Wunderground v.1.15,2013-04-16 06:55:00,
2013-04-16 03:00:00,55.8,51.0,30.28,ESE,106,2.0,2.0,84,0.00,,,0.00,Wunderground v.1.15,2013-04-16 07:00:00,
2013-04-16 03:05:00,55.8,51.0,30.28,ESE,106,1.0,8.0,84,0.00,,,0.00,Wunderground v.1.15,2013-04-16 07:05:00,
2013-04-16 03:10:00,55.7,51.3,30.28,East,97,1.0,1.0,85,0.00,,,0.00,Wunderground v.1.15,2013-04-16 07:10:00,
2013-04-16 03:15:00,55.7,51.3,30.28,East,92,1.0,8.0,85,0.00,,,0.00,Wunderground v.1.15,2013-04-16 07:15:00,
2013-04-16 03:25:00,55.7,51.3,30.28,ENE,64,2.0,8.0,85,0.00,,,0.00,Wunderground v.1.15,2013-04-16 07:25:00,
2013-04-16 03:30:00,55.6,51.2,30.28,ENE,72,1.0,8.0,85,0.00,,,0.00,Wunderground v.1.15,2013-04-16 07:30:00,
2013-04-16 03:35:00,55.6,51.2,30.28,East,98,1.0,8.0,85,0.00,,,0.00,Wunderground v.1.15,2013-04-16 07:35:00,
2013-04-16 03:40:00,55.5,51.1,30.28,East,94,2.0,2.0,85,0.00,,,0.00,Wunderground v.1.15,2013-04-16 07:40:00,
2013-04-16 03:50:00,55.5,51.4,30.28,East,99,1.0,8.0,86,0.00,,,0.00,Wunderground v.1.15,2013-04-16 07:50:00,
2013-04-16 03:55:00,55.5,51.4,30.28,ESE,106,1.0,8.0,86,0.00,,,0.00,Wunderground v.1.15,2013-04-16 07:55:00,
2013-04-16 04:00:00,55.5,51.4,30.28,ESE,106,1.0,8.0,86,0.00,,,0.00,Wunderground v.1.15,2013-04-16 08:00:00,
2013-04-16 04:05:00,55.4,51.3,30.28,East,96,1.0,8.0,86,0.00,,,0.00,Wunderground v.1.15,2013-04-16 08:05:00,
2013-04-16 04:10:00,55.4,51.3,30.28,East,84,2.0,2.0,86,0.00,,,0.00,Wunderground v.1.15,2013-04-16 08:10:00,
2013-04-16 04:20:00,55.4,51.6,30.28,East,93,2.0,8.0,87,0.00,,,0.00,Wunderground v.1.15,2013-04-16 08:20:00,
2013-04-16 04:25:00,55.4,51.6,30.28,East,89,2.0,8.0,87,0.00,,,0.00,Wunderground v.1.15,2013-04-16 08:25:00,
2013-04-16 04:30:00,55.3,51.5,30.28,East,88,2.0,2.0,87,0.00,,,0.00,Wunderground v.1.15,2013-04-16 08:30:00,
2013-04-16 04:35:00,55.3,51.5,30.28,East,98,1.0,8.0,87,0.00,,,0.00,Wunderground v.1.15,2013-04-16 08:35:00,
2013-04-16 04:45:00,55.3,51.5,30.28,ESE,103,2.0,8.0,87,0.00,,,0.00,Wunderground v.1.15,2013-04-16 08:45:00,
2013-04-16 04:50:00,55.3,51.5,30.28,East,85,1.0,1.0,87,0.00,,,0.00,Wunderground v.1.15,2013-04-16 08:50:00,
2013-04-16 04:55:00,55.3,51.8,30.28,East,84,1.0,8.0,88,0.00,,,0.00,Wunderground v.1.15,2013-04-16 08:55:00,
2013-04-16 05:00:00,55.3,51.8,30.28,East,85,1.0,8.0,88,0.00,,,0.00,Wunderground v.1.15,2013-04-16 09:00:00,
2013-04-16 05:05:00,55.3,51.8,30.28,East,85,1.0,8.0,88,0.00,,,0.00,Wunderground v.1.15,2013-04-16 09:05:00,
2013-04-16 05:15:00,55.2,51.7,30.28,East,93,1.0,8.0,88,0.00,,,0.00,Wunderground v.1.15,2013-04-16 09:15:00,
2013-04-16 05:20:00,55.2,51.7,30.28,East,92,1.0,8.0,88,0.00,,,0.00,Wunderground v.1.15,2013-04-16 09:20:00,
2013-04-16 05:25:00,55.2,51.7,30.28,ESE,103,2.0,8.0,88,0.00,,,0.00,Wunderground v.1.15,2013-04-16 09:25:00,
2013-04-16 05:30:00,55.2,52.0,30.28,East,84,3.0,3.0,89,0.00,,,0.00,Wunderground v.1.15,2013-04-16 09:30:00,
2013-04-16 05:40:00,55.2,52.0,30.28,East,94,2.0,2.0,89,0.00,,,0.00,Wunderground v.1.15,2013-04-16 09:40:00,
2013-04-16 05:45:00,55.2,52.0,30.28,East,88,2.0,8.0,89,0.00,,,0.00,Wunderground v.1.15,2013-04-16 09:45:00,
2013-04-16 05:50:00,55.2,52.0,30.28,ESE,109,2.0,8.0,89,0.00,,,0.00,Wunderground v.1.15,2013-04-16 09:50:00,
2013-04-16 05:55:00,55.2,52.0,30.28,East,98,2.0,8.0,89,0.00,,,0.00,Wunderground v.1.15,2013-04-16 09:55:00,
2013-04-16 06:00:00,55.1,51.9,30.28,East,80,2.0,2.0,89,0.00,,,0.00,Wunderground v.1.15,2013-04-16 10:00:00,
2013-04-16 06:10:00,55.1,51.9,30.28,East,88,2.0,8.0,89,0.00,,,0.00,Wunderground v.1.15,2013-04-16 10:10:00,
2013-04-16 06:15:00,55.1,51.9,30.28,East,92,1.0,8.0,89,0.00,,,0.00,Wunderground v.1.15,2013-04-16 10:15:00,
2013-04-16 06:20:00,55.1,51.9,30.29,East,91,0.0,8.0,89,0.00,,,0.00,Wunderground v.1.15,2013-04-16 10:20:00,
2013-04-16 06:25:00,55.1,51.9,30.29,ESE,107,1.0,8.0,89,0.00,,,0.00,Wunderground v.1.15,2013-04-16 10:25:00,
2013-04-16 06:30:00,55.1,51.9,30.29,ESE,105,1.0,8.0,89,0.00,,,0.00,Wunderground v.1.15,2013-04-16 10:30:00,
2013-04-16 06:40:00,55.0,51.8,30.29,East,101,1.0,1.0,89,0.00,,,0.00,Wunderground v.1.15,2013-04-16 10:40:00,
2013-04-16 06:45:00,55.0,52.1,30.29,East,101,1.0,8.0,90,0.00,,,0.00,Wunderground v.1.15,2013-04-16 10:45:00,
2013-04-16 06:50:00,55.0,52.1,30.29,East,101,1.0,8.0,90,0.00,,,0.00,Wunderground v.1.15,2013-04-16 10:50:00,
2013-04-16 06:55:00,55.0,52.1,30.30,East,97,1.0,8.0,90,0.00,,,0.00,Wunderground v.1.15,2013-04-16 10:55:00,
2013-04-16 07:05:00,55.1,52.2,30.30,East,97,0.0,8.0,90,0.00,,,0.00,Wunderground v.1.15,2013-04-16 11:05:00,
2013-04-16 07:10:00,55.1,52.2,30.30,East,96,1.0,1.0,90,0.00,,,0.00,Wunderground v.1.15,2013-04-16 11:10:00,
2013-04-16 07:15:00,55.1,52.2,30.30,East,97,1.0,8.0,90,0.00,,,0.00,Wunderground v.1.15,2013-04-16 11:15:00,
2013-04-16 07:20:00,55.1,52.2,30.31,East,97,1.0,8.0,90,0.00,,,0.00,Wunderground v.1.15,2013-04-16 11:20:00,
2013-04-16 07:25:00,55.2,52.3,30.31,East,96,2.0,8.0,90,0.00,,,0.00,Wunderground v.1.15,2013-04-16 11:25:00,
2013-04-16 07:35:00,55.4,52.5,30.30,East,97,1.0,8.0,90,0.00,,,0.00,Wunderground v.1.15,2013-04-16 11:35:00,
2013-04-16 07:40:00,55.4,52.5,30.31,East,97,0.0,8.0,90,0.00,,,0.00,Wunderground v.1.15,2013-04-16 11:40:00,
2013-04-16 07:45:00,55.5,52.6,30.31,East,97,0.0,8.0,90,0.00,,,0.00,Wunderground v.1.15,2013-04-16 11:45:00,
2013-04-16 07:50:00,55.6,52.7,30.31,East,96,0.0,8.0,90,0.00,,,0.00,Wunderground v.1.15,2013-04-16 11:50:00,
2013-04-16 08:00:00,55.7,52.8,30.31,East,97,1.0,1.0,90,0.00,,,0.00,Wunderground v.1.15,2013-04-16 12:00:00,
2013-04-16 08:05:00,55.7,52.8,30.31,East,96,1.0,8.0,90,0.00,,,0.00,Wunderground v.1.15,2013-04-16 12:05:00,
2013-04-16 08:10:00,55.8,53.2,30.31,East,98,1.0,8.0,91,0.00,,,0.00,Wunderground v.1.15,2013-04-16 12:10:00,
2013-04-16 08:15:00,55.9,53.3,30.32,East,98,1.0,8.0,91,0.00,,,0.00,Wunderground v.1.15,2013-04-16 12:15:00,
2013-04-16 08:20:00,56.0,53.4,30.32,East,98,1.0,1.0,91,0.00,,,0.00,Wunderground v.1.15,2013-04-16 12:20:00,
2013-04-16 08:30:00,56.1,53.5,30.32,East,98,1.0,1.0,91,0.00,,,0.00,Wunderground v.1.15,2013-04-16 12:30:00,
2013-04-16 08:35:00,56.3,53.4,30.32,East,98,1.0,8.0,90,0.00,,,0.00,Wunderground v.1.15,2013-04-16 12:35:00,
2013-04-16 08:40:00,56.5,53.6,30.33,East,98,0.0,8.0,90,0.00,,,0.00,Wunderground v.1.15,2013-04-16 12:40:00,
2013-04-16 08:45:00,56.6,53.7,30.33,SE,136,0.0,8.0,90,0.00,,,0.00,Wunderground v.1.15,2013-04-16 12:45:00,
2013-04-16 08:55:00,56.7,53.8,30.32,SE,132,0.0,8.0,90,0.00,,,0.00,Wunderground v.1.15,2013-04-16 12:55:00,
2013-04-16 09:00:00,56.8,53.9,30.32,ENE,71,0.0,8.0,90,0.00,,,0.00,Wunderground v.1.15,2013-04-16 13:00:00,
2013-04-16 09:05:00,57.0,54.1,30.32,ENE,71,0.0,8.0,90,0.00,,,0.00,Wunderground v.1.15,2013-04-16 13:05:00,
2013-04-16 09:10:00,57.2,54.3,30.32,ENE,73,0.0,8.0,90,0.00,,,0.00,Wunderground v.1.15,2013-04-16 13:10:00,
2013-04-16 09:20:00,57.6,54.4,30.32,ENE,73,1.0,8.0,89,0.00,,,0.00,Wunderground v.1.15,2013-04-16 13:20:00,
2013-04-16 09:25:00,57.8,54.6,30.32,South,180,0.0,8.0,89,0.00,,,0.00,Wunderground v.1.15,2013-04-16 13:25:00,
2013-04-16 09:30:00,58.0,54.5,30.32,East,100,1.0,1.0,88,0.00,,,0.00,Wunderground v.1.15,2013-04-16 13:30:00,
2013-04-16 09:35:00,58.1,54.9,30.32,East,96,1.0,4.0,89,0.00,,,0.00,Wunderground v.1.15,2013-04-16 13:35:00,
2013-04-16 09:40:00,58.3,54.8,30.32,East,92,1.0,8.0,88,0.00,,,0.00,Wunderground v.1.15,2013-04-16 13:40:00,
2013-04-16 09:50:00,58.7,55.2,30.32,South,178,1.0,1.0,88,0.00,,,0.00,Wunderground v.1.15,2013-04-16 13:50:00,
2013-04-16 09:55:00,59.0,55.1,30.32,East,96,0.0,8.0,87,0.00,,,0.00,Wunderground v.1.15,2013-04-16 13:55:00,
2013-04-16 10:00:00,59.0,55.1,30.32,East,98,1.0,8.0,87,0.00,,,0.00,Wunderground v.1.15,2013-04-16 14:00:00,
2013-04-16 10:05:00,59.0,55.1,30.32,East,84,2.0,8.0,87,0.00,,,0.00,Wunderground v.1.15,2013-04-16 14:05:00,
2013-04-16 10:10:00,59.0,55.1,30.32,East,91,2.0,2.0,87,0.00,,,0.00,Wunderground v.1.15,2013-04-16 14:10:00,
2013-04-16 10:20:00,59.3,55.4,30.32,East,94,1.0,1.0,87,0.00,,,0.00,Wunderground v.1.15,2013-04-16 14:20:00,
2013-04-16 10:25:00,59.5,55.6,30.32,East,84,1.0,5.0,87,0.00,,,0.00,Wunderground v.1.15,2013-04-16 14:25:00,
2013-04-16 10:30:00,59.7,55.5,30.32,ESE,106,2.0,2.0,86,0.00,,,0.00,Wunderground v.1.15,2013-04-16 14:30:00,
2013-04-16 10:40:00,60.5,56.3,30.31,South,187,1.0,1.0,86,0.00,,,0.00,Wunderground v.1.15,2013-04-16 14:40:00,
2013-04-16 10:45:00,61.1,56.6,30.31,SSE,157,2.0,2.0,85,0.00,,,0.00,Wunderground v.1.15,2013-04-16 14:45:00,
2013-04-16 10:50:00,61.5,56.6,30.31,ENE,71,2.0,8.0,84,0.00,,,0.00,Wunderground v.1.15,2013-04-16 14:50:00,
2013-04-16 10:55:00,61.7,56.8,30.31,South,175,3.0,8.0,84,0.00,,,0.00,Wunderground v.1.15,2013-04-16 14:55:00,
2013-04-16 11:00:00,62.1,57.2,30.31,SSE,158,2.0,2.0,84,0.00,,,0.00,Wunderground v.1.15,2013-04-16 15:00:00,
2013-04-16 11:10:00,62.6,57.4,30.31,South,183,3.0,9.0,83,0.00,,,0.00,Wunderground v.1.15,2013-04-16 15:10:00,
2013-04-16 11:15:00,62.9,57.3,30.31,SSW,200,3.0,9.0,82,0.00,,,0.00,Wunderground v.1.15,2013-04-16 15:15:00,
2013-04-16 11:20:00,63.2,57.6,30.31,South,187,3.0,8.0,82,0.00,,,0.00,Wunderground v.1.15,2013-04-16 15:20:00,
2013-04-16 11:25:00,63.3,57.7,30.31,South,175,3.0,8.0,82,0.00,,,0.00,Wunderground v.1.15,2013-04-16 15:25:00,
2013-04-16 11:30:00,63.8,58.2,30.31,South,182,4.0,8.0,82,0.00,,,0.00,Wunderground v.1.15,2013-04-16 15:30:00,
2013-04-16 11:40:00,64.3,58.3,30.31,South,174,5.0,5.0,81,0.00,,,0.00,Wunderground v.1.15,2013-04-16 15:40:00,
2013-04-16 11:45:00,65.0,58.7,30.31,NE,55,4.0,8.0,80,0.00,,,0.00,Wunderground v.1.15,2013-04-16 15:45:00,
2013-04-16 11:50:00,65.1,58.8,30.31,South,181,3.0,9.0,80,0.00,,,0.00,Wunderground v.1.15,2013-04-16 15:50:00,
2013-04-16 11:55:00,65.0,58.3,30.31,SSW,203,3.0,9.0,79,0.00,,,0.00,Wunderground v.1.15,2013-04-16 15:55:00,
2013-04-16 12:00:00,65.1,58.8,30.31,SSE,152,3.0,3.0,80,0.00,,,0.00,Wunderground v.1.15,2013-04-16 16:00:00,
2013-04-16 12:10:00,65.8,59.1,30.31,South,171,3.0,3.0,79,0.00,,,0.00,Wunderground v.1.15,2013-04-16 16:10:00,
2013-04-16 12:15:00,65.9,58.8,30.30,SW,218,4.0,5.0,78,0.00,,,0.00,Wunderground v.1.15,2013-04-16 16:15:00,
2013-04-16 12:20:00,66.0,59.3,30.30,South,185,3.0,8.0,79,0.00,,,0.00,Wunderground v.1.15,2013-04-16 16:20:00,
2013-04-16 12:25:00,65.9,58.8,30.30,WSW,238,3.0,8.0,78,0.00,,,0.00,Wunderground v.1.15,2013-04-16 16:25:00,
2013-04-16 12:30:00,66.1,59.4,30.30,South,186,3.0,8.0,79,0.00,,,0.00,Wunderground v.1.15,2013-04-16 16:30:00,
2013-04-16 12:40:00,66.5,59.4,30.30,South,184,4.0,8.0,78,0.00,,,0.00,Wunderground v.1.15,2013-04-16 16:40:00,
2013-04-16 12:45:00,66.8,59.7,30.29,SW,223,4.0,8.0,78,0.00,,,0.00,Wunderground v.1.15,2013-04-16 16:45:00,
2013-04-16 12:50:00,67.0,59.5,30.29,South,186,4.0,9.0,77,0.00,,,0.00,Wunderground v.1.15,2013-04-16 16:50:00,
2013-04-16 13:00:00,67.7,59.9,30.28,WSW,239,4.0,9.0,76,0.00,,,0.00,Wunderground v.1.15,2013-04-16 17:00:00,
2013-04-16 13:05:00,67.7,59.5,30.28,SSE,164,5.0,11.0,75,0.00,,,0.00,Wunderground v.1.15,2013-04-16 17:05:00,
2013-04-16 13:10:00,67.9,59.7,30.28,South,179,6.0,6.0,75,0.00,,,0.00,Wunderground v.1.15,2013-04-16 17:10:00,
2013-04-16 13:15:00,68.3,60.1,30.27,SSW,192,4.0,8.0,75,0.00,,,0.00,Wunderground v.1.15,2013-04-16 17:15:00,
2013-04-16 13:20:00,68.2,60.0,30.27,SW,225,4.0,4.0,75,0.00,,,0.00,Wunderground v.1.15,2013-04-16 17:20:00,
2013-04-16 13:30:00,70.0,60.6,30.26,South,188,3.0,3.0,72,0.00,,,0.00,Wunderground v.1.15,2013-04-16 17:30:00,
2013-04-16 13:35:00,70.3,60.8,30.26,SW,223,4.0,4.0,72,0.00,,,0.00,Wunderground v.1.15,2013-04-16 17:35:00,
2013-04-16 13:40:00,70.7,60.4,30.26,South,170,5.0,10.0,70,0.00,,,0.00,Wunderground v.1.15,2013-04-16 17:40:00,
2013-04-16 13:45:00,70.7,60.8,30.26,NE,51,6.0,10.0,71,0.00,,,0.00,Wunderground v.1.15,2013-04-16 17:45:00,
2013-04-16 13:50:00,71.9,61.6,30.26,NNW,348,4.0,4.0,70,0.00,,,0.00,Wunderground v.1.15,2013-04-16 17:50:00,
2013-04-16 14:00:00,72.1,61.4,30.25,SW,234,2.0,8.0,69,0.00,,,0.00,Wunderground v.1.15,2013-04-16 18:00:00,
2013-04-16 14:05:00,72.1,60.5,30.25,South,171,3.0,8.0,67,0.00,,,0.00,Wunderground v.1.15,2013-04-16 18:05:00,
2013-04-16 14:10:00,71.6,60.5,30.25,South,182,4.0,4.0,68,0.00,,,0.00,Wunderground v.1.15,2013-04-16 18:10:00,
2013-04-16 14:15:00,71.3,60.2,30.25,SE,133,4.0,8.0,68,0.00,,,0.00,Wunderground v.1.15,2013-04-16 18:15:00,
2013-04-16 14:20:00,71.3,60.6,30.24,SSW,194,3.0,8.0,69,0.00,,,0.00,Wunderground v.1.15,2013-04-16 18:20:00,
2013-04-16 14:30:00,71.5,60.8,30.24,SSW,205,3.0,8.0,69,0.00,,,0.00,Wunderground v.1.15,2013-04-16 18:30:00,
2013-04-16 14:35:00,72.1,61.4,30.24,WSW,241,3.0,8.0,69,0.00,,,0.00,Wunderground v.1.15,2013-04-16 18:35:00,
2013-04-16 14:40:00,72.9,61.3,30.23,East,92,3.0,8.0,67,0.00,,,0.00,Wunderground v.1.15,2013-04-16 18:40:00,
2013-04-16 14:50:00,72.5,60.9,30.23,SSW,200,4.0,10.0,67,0.00,,,0.00,Wunderground v.1.15,2013-04-16 18:50:00,
2013-04-16 14:55:00,72.4,60.8,30.23,South,184,4.0,10.0,67,0.00,,,0.00,Wunderground v.1.15,2013-04-16 18:55:00,
2013-04-16 15:00:00,72.7,61.1,30.22,ENE,69,4.0,4.0,67,0.00,,,0.00,Wunderground v.1.15,2013-04-16 19:00:00,
2013-04-16 15:05:00,73.7,61.2,30.22,SW,214,3.0,5.0,65,0.00,,,0.00,Wunderground v.1.15,2013-04-16 19:05:00,
2013-04-16 15:10:00,74.2,60.8,30.22,South,172,4.0,10.0,63,0.00,,,0.00,Wunderground v.1.15,2013-04-16 19:10:00,
2013-04-16 15:20:00,73.8,61.3,30.22,South,172,5.0,5.0,65,0.00,,,0.00,Wunderground v.1.15,2013-04-16 19:20:00,
2013-04-16 15:25:00,74.1,61.6,30.21,SSW,194,3.0,6.0,65,0.00,,,0.00,Wunderground v.1.15,2013-04-16 19:25:00,
2013-04-16 15:30:00,74.0,61.5,30.21,South,171,3.0,3.0,65,0.00,,,0.00,Wunderground v.1.15,2013-04-16 19:30:00,
2013-04-16 15:35:00,74.1,61.6,30.21,South,172,3.0,8.0,65,0.00,,,0.00,Wunderground v.1.15,2013-04-16 19:35:00,
2013-04-16 15:40:00,74.0,61.5,30.21,SSE,163,2.0,8.0,65,0.00,,,0.00,Wunderground v.1.15,2013-04-16 19:40:00,
2013-04-16 15:50:00,73.7,61.2,30.20,South,173,3.0,3.0,65,0.00,,,0.00,Wunderground v.1.15,2013-04-16 19:50:00,
2013-04-16 15:55:00,73.5,61.0,30.20,South,184,2.0,8.0,65,0.00,,,0.00,Wunderground v.1.15,2013-04-16 19:55:00,
2013-04-16 16:00:00,73.2,60.7,30.20,South,190,2.0,8.0,65,0.00,,,0.00,Wunderground v.1.15,2013-04-16 20:00:00,
2013-04-16 16:05:00,72.9,60.9,30.19,SSW,193,3.0,8.0,66,0.00,,,0.00,Wunderground v.1.15,2013-04-16 20:05:00,
2013-04-16 16:10:00,73.5,61.4,30.19,South,173,2.0,8.0,66,0.00,,,0.00,Wunderground v.1.15,2013-04-16 20:10:00,
2013-04-16 16:20:00,74.9,61.5,30.18,South,177,3.0,3.0,63,0.00,,,0.00,Wunderground v.1.15,2013-04-16 20:20:00,
2013-04-16 16:25:00,74.6,61.2,30.18,South,179,4.0,7.0,63,0.00,,,0.00,Wunderground v.1.15,2013-04-16 20:25:00,
2013-04-16 16:30:00,74.9,61.5,30.18,SW,217,3.0,3.0,63,0.00,,,0.00,Wunderground v.1.15,2013-04-16 20:30:00,
2013-04-16 16:35:00,75.3,61.4,30.18,SSE,165,2.0,6.0,62,0.00,,,0.00,Wunderground v.1.15,2013-04-16 20:35:00,
2013-04-16 16:40:00,75.5,62.0,30.18,ESE,123,2.0,2.0,63,0.00,,,0.00,Wunderground v.1.15,2013-04-16 20:40:00,
2013-04-16 16:50:00,75.7,61.3,30.18,South,177,2.0,8.0,61,0.00,,,0.00,Wunderground v.1.15,2013-04-16 20:50:00,
2013-04-16 16:55:00,75.3,61.4,30.18,North,360,4.0,8.0,62,0.00,,,0.00,Wunderground v.1.15,2013-04-16 20:55:00,
2013-04-16 17:00:00,75.0,61.1,30.18,SSE,150,5.0,5.0,62,0.00,,,0.00,Wunderground v.1.15,2013-04-16 21:00:00,
2013-04-16 17:10:00,75.0,61.1,30.17,SSW,200,4.0,9.0,62,0.00,,,0.00,Wunderground v.1.15,2013-04-16 21:10:00,
2013-04-16 17:15:00,75.0,61.5,30.17,SW,236,4.0,9.0,63,0.00,,,0.00,Wunderground v.1.15,2013-04-16 21:15:00,
2013-04-16 17:20:00,75.3,61.8,30.17,SSE,152,3.0,3.0,63,0.00,,,0.00,Wunderground v.1.15,2013-04-16 21:20:00,
2013-04-16 17:25:00,75.7,61.8,30.17,South,184,3.0,4.0,62,0.00,,,0.00,Wunderground v.1.15,2013-04-16 21:25:00,
2013-04-16 17:30:00,75.9,61.5,30.17,SSE,153,2.0,8.0,61,0.00,,,0.00,Wunderground v.1.15,2013-04-16 21:30:00,
2013-04-16 17:40:00,75.6,61.2,30.17,South,188,2.0,12.0,61,0.00,,,0.00,Wunderground v.1.15,2013-04-16 21:40:00,
2013-04-16 17:45:00,75.3,60.9,30.17,SSE,166,3.0,12.0,61,0.00,,,0.00,Wunderground v.1.15,2013-04-16 21:45:00,
2013-04-16 17:50:00,75.1,61.2,30.17,SSW,194,5.0,5.0,62,0.00,,,0.00,Wunderground v.1.15,2013-04-16 21:50:00,
2013-04-16 17:55:00,75.1,61.2,30.17,South,175,4.0,7.0,62,0.00,,,0.00,Wunderground v.1.15,2013-04-16 21:55:00,
2013-04-16 18:00:00,75.0,61.1,30.17,SSW,196,4.0,4.0,62,0.00,,,0.00,Wunderground v.1.15,2013-04-16 22:00:00,
2013-04-16 18:10:00,74.7,60.8,30.17,South,185,5.0,8.0,62,0.00,,,0.00,Wunderground v.1.15,2013-04-16 22:10:00,
2013-04-16 18:15:00,74.6,61.2,30.17,SSW,199,5.0,11.0,63,0.00,,,0.00,Wunderground v.1.15,2013-04-16 22:15:00,
2013-04-16 18:20:00,74.4,61.0,30.16,South,183,5.0,5.0,63,0.00,,,0.00,Wunderground v.1.15,2013-04-16 22:20:00,
2013-04-16 18:25:00,74.4,61.0,30.15,South,172,5.0,13.0,63,0.00,,,0.00,Wunderground v.1.15,2013-04-16 22:25:00,
2013-04-16 18:30:00,74.3,61.3,30.15,SW,215,5.0,5.0,64,0.00,,,0.00,Wunderground v.1.15,2013-04-16 22:30:00,
2013-04-16 18:40:00,74.4,61.4,30.16,South,171,3.0,3.0,64,0.00,,,0.00,Wunderground v.1.15,2013-04-16 22:40:00,
2013-04-16 18:45:00,74.3,61.3,30.16,South,182,3.0,6.0,64,0.00,,,0.00,Wunderground v.1.15,2013-04-16 22:45:00,
2013-04-16 18:50:00,74.2,61.7,30.16,SW,225,2.0,8.0,65,0.00,,,0.00,Wunderground v.1.15,2013-04-16 22:50:00,
2013-04-16 18:55:00,74.0,61.5,30.15,ESE,119,2.0,8.0,65,0.00,,,0.00,Wunderground v.1.15,2013-04-16 22:55:00,
2013-04-16 19:00:00,73.6,61.5,30.15,South,190,4.0,8.0,66,0.00,,,0.00,Wunderground v.1.15,2013-04-16 23:00:00,
2013-04-16 19:10:00,73.0,61.8,30.14,South,176,5.0,5.0,68,0.00,,,0.00,Wunderground v.1.15,2013-04-16 23:10:00,
2013-04-16 19:15:00,72.7,61.5,30.14,SSW,198,3.0,8.0,68,0.00,,,0.00,Wunderground v.1.15,2013-04-16 23:15:00,
2013-04-16 19:20:00,72.5,61.7,30.14,South,187,2.0,2.0,69,0.00,,,0.00,Wunderground v.1.15,2013-04-16 23:20:00,
2013-04-16 19:30:00,72.1,61.8,30.14,South,169,2.0,8.0,70,0.00,,,0.00,Wunderground v.1.15,2013-04-16 23:30:00,
2013-04-16 19:35:00,71.8,61.5,30.14,SE,136,2.0,8.0,70,0.00,,,0.00,Wunderground v.1.15,2013-04-16 23:35:00,
2013-04-16 19:40:00,71.6,61.7,30.13,SSE,147,4.0,4.0,71,0.00,,,0.00,Wunderground v.1.15,2013-04-16 23:40:00,
2013-04-16 19:45:00,71.4,61.5,30.13,South,175,3.0,8.0,71,0.00,,,0.00,Wunderground v.1.15,2013-04-16 23:45:00,
2013-04-16 19:50:00,71.3,61.8,30.13,SSW,209,3.0,8.0,72,0.00,,,0.00,Wunderground v.1.15,2013-04-16 23:50:00,
2013-04-16 20:00:00,71.0,61.5,30.12,SE,128,3.0,3.0,72,0.00,,,0.00,Wunderground v.1.15,2013-04-17 00:00:00,
2013-04-16 20:05:00,70.8,61.7,30.13,SSW,213,3.0,5.0,73,0.00,,,0.00,Wunderground v.1.15,2013-04-17 00:05:00,
2013-04-16 20:10:00,70.7,61.6,30.13,SSE,159,2.0,2.0,73,0.00,,,0.00,Wunderground v.1.15,2013-04-17 00:10:00,
2013-04-16 20:15:00,70.5,61.8,30.13,South,177,2.0,4.0,74,0.00,,,0.00,Wunderground v.1.15,2013-04-17 00:15:00,
2013-04-16 20:20:00,70.4,61.7,30.13,South,183,2.0,8.0,74,0.00,,,0.00,Wunderground v.1.15,2013-04-17 00:20:00,
2013-04-16 20:30:00,70.2,61.9,30.14,South,188,2.0,2.0,75,0.00,,,0.00,Wunderground v.1.15,2013-04-17 00:30:00,
2013-04-16 20:35:00,70.0,61.7,30.14,SSE,165,1.0,8.0,75,0.00,,,0.00,Wunderground v.1.15,2013-04-17 00:35:00,
2013-04-16 20:40:00,69.8,62.3,30.14,South,190,1.0,1.0,77,0.00,,,0.00,Wunderground v.1.15,2013-04-17 00:40:00,
2013-04-16 20:45:00,69.6,61.7,30.14,SW,218,2.0,2.0,76,0.00,,,0.00,Wunderground v.1.15,2013-04-17 00:45:00,
2013-04-16 20:50:00,69.4,61.9,30.14,ESE,104,2.0,2.0,77,0.00,,,0.00,Wunderground v.1.15,2013-04-17 00:50:00,
2013-04-16 21:00:00,69.2,61.7,30.15,South,185,1.0,8.0,77,0.00,,,0.00,Wunderground v.1.15,2013-04-17 01:00:00,
2013-04-16 21:05:00,69.3,61.8,30.16,South,180,3.0,8.0,77,0.00,,,0.00,Wunderground v.1.15,2013-04-17 01:05:00,
2013-04-16 21:10:00,69.2,61.7,30.16,SE,137,2.0,2.0,77,0.00,,,0.00,Wunderground v.1.15,2013-04-17 01:10:00,
2013-04-16 21:15:00,69.1,61.9,30.16,South,191,1.0,8.0,78,0.00,,,0.00,Wunderground v.1.15,2013-04-17 01:15:00,
2013-04-16 21:25:00,68.9,61.8,30.16,South,191,3.0,8.0,78,0.00,,,0.00,Wunderground v.1.15,2013-04-17 01:25:00,
2013-04-16 21:30:00,68.7,61.9,30.16,WSW,237,2.0,2.0,79,0.00,,,0.00,Wunderground v.1.15,2013-04-17 01:30:00,
2013-04-16 21:35:00,68.6,61.8,30.16,WSW,237,2.0,8.0,79,0.00,,,0.00,Wunderground v.1.15,2013-04-17 01:35:00,
2013-04-16 21:40:00,68.4,62.0,30.17,South,175,2.0,8.0,80,0.00,,,0.00,Wunderground v.1.15,2013-04-17 01:40:00,
2013-04-16 21:50:00,68.1,61.7,30.17,SSE,168,1.0,1.0,80,0.00,,,0.00,Wunderground v.1.15,2013-04-17 01:50:00,
2013-04-16 21:55:00,67.9,61.9,30.16,South,180,2.0,2.0,81,0.00,,,0.00,Wunderground v.1.15,2013-04-17 01:55:00,
2013-04-16 22:00:00,67.7,61.7,30.17,South,180,1.0,8.0,81,0.00,,,0.00,Wunderground v.1.15,2013-04-17 02:00:00,
2013-04-16 22:05:00,67.5,61.8,30.16,SSE,159,1.0,8.0,82,0.00,,,0.00,Wunderground v.1.15,2013-04-17 02:05:00,
2013-04-16 22:10:00,67.3,61.6,30.16,SSE,164,1.0,8.0,82,0.00,,,0.00,Wunderground v.1.15,2013-04-17 02:10:00,
2013-04-16 22:20:00,67.0,61.7,30.16,ESE,115,2.0,2.0,83,0.00,,,0.00,Wunderground v.1.15,2013-04-17 02:20:00,
2013-04-16 22:25:00,66.9,61.6,30.17,South,178,2.0,8.0,83,0.00,,,0.00,Wunderground v.1.15,2013-04-17 02:25:00,
2013-04-16 22:30:00,66.7,61.7,30.17,SSE,159,2.0,8.0,84,0.00,,,0.00,Wunderground v.1.15,2013-04-17 02:30:00,
2013-04-16 22:35:00,66.6,61.6,30.17,South,175,2.0,8.0,84,0.00,,,0.00,Wunderground v.1.15,2013-04-17 02:35:00,
2013-04-16 22:40:00,66.5,61.5,30.17,SSW,213,2.0,2.0,84,0.00,,,0.00,Wunderground v.1.15,2013-04-17 02:40:00,
2013-04-16 22:50:00,66.2,61.6,30.17,South,190,1.0,1.0,85,0.00,,,0.00,Wunderground v.1.15,2013-04-17 02:50:00,
2013-04-16 22:55:00,66.0,61.4,30.17,South,191,0.0,8.0,85,0.00,,,0.00,Wunderground v.1.15,2013-04-17 02:55:00,
2013-04-16 23:00:00,65.9,61.3,30.17,SSW,192,0.0,8.0,85,0.00,,,0.00,Wunderground v.1.15,2013-04-17 03:00:00,
2013-04-16 23:05:00,65.8,61.5,30.16,SSW,192,1.0,8.0,86,0.00,,,0.00,Wunderground v.1.15,2013-04-17 03:05:00,
2013-04-16 23:10:00,65.6,61.3,30.17,SE,143,1.0,8.0,86,0.00,,,0.00,Wunderground v.1.15,2013-04-17 03:10:00,
2013-04-16 23:20:00,65.4,61.1,30.16,South,186,1.0,1.0,86,0.00,,,0.00,Wunderground v.1.15,2013-04-17 03:20:00,
2013-04-16 23:25:00,65.3,61.3,30.16,South,182,0.0,2.0,87,0.00,,,0.00,Wunderground v.1.15,2013-04-17 03:25:00,
2013-04-16 23:30:00,65.2,61.2,30.16,SSW,192,1.0,1.0,87,0.00,,,0.00,Wunderground v.1.15,2013-04-17 03:30:00,
2013-04-16 23:35:00,65.0,61.0,30.16,SSW,192,1.0,8.0,87,0.00,,,0.00,Wunderground v.1.15,2013-04-17 03:35:00,
2013-04-16 23:45:00,64.8,61.2,30.16,South,190,0.0,8.0,88,0.00,,,0.00,Wunderground v.1.15,2013-04-17 03:45:00,
2013-04-16 23:50:00,64.8,61.2,30.16,South,190,0.0,8.0,88,0.00,,,0.00,Wunderground v.1.15,2013-04-17 03:50:00,
2013-04-16 23:55:00,64.7,61.1,30.16,SSW,208,0.0,8.0,88,0.00,,,0.00,Wunderground v.1.15,2013-04-17 03:55:00,